Accueil
METAR-TAF:

METAR-TAF

Aéroports :

Meriden-Markham Municipal Airport

Meriden, Connecticut, États-Unis

latitude: 41-30-35N, longitude: 072-49-40W, altitude: 31 m

Observation

Le bulletin a été fait il y a 33 minutes, à 09:53 UTC
Vent calme
Température -6°C
Humidité 79%
Pression 1019 hPa
Visibilité: 16.1 km
Ciel clair

METAR: KMMK 100953Z AUTO 00000KT 10SM CLR M06/M09 A3008 RMK AO2 SLP189 T10611089 $

Heure: 05:26 (10:26 UTC)


TAF: absent

Observations et prévisions météorologiques de plus de 4000 aéroports (messages METAR et TAF).

Les stations disponibles sont représentées par des disques jaunes et rouges sur la carte.

Passer la souris dessus pour voir le nom de la station.

Cliquer dessus pour voir les observations et prévisions météorologiques.

Pour changer de carte: cliquez sur les boutons verts avec une croix noire pour zoomer, sur le bouton vert avec un tiret pour effectuer un zoom arrière, ou sur les flèches vertes pour les cartes adjacentes.


METAR-TAF: